Location: 22
(39.7117°N, 89.5929°W)
Time: 08:53:00
(UTC-05:00)

Transit 2A - Pass Details

Date: 06 August 2024
Orbit: 590 x 961 km, 66.7° (Epoch: 13 September)

Event Time Altitude Azimuth Distance (km) Brightness Sun altitude
Rises 05:57:44 0° 235° (SW) 3,222 - -1.7°
Exits shadow 05:58:07 - 237° (WSW) 3,085 8.5 -1.6°
Reaches altitude 10° 06:00:14 10° 245° (WSW) 2,360 7.9 -1.3°
Maximum altitude 06:05:11 34° 310° (NW) 1,375 7.1 -0.4°
Drops below altitude 10° 06:10:35 10° 14° (NNE) 2,587 9.3 0.6°
Sets 06:13:28 0° 23° (NNE) 3,576 10.2 1.1°
